Weather History for Murray, KY

Change the Weather History Date:

Tuesday, April 30, 2013

  Actual Average (KPAH) Record (KPAH)
Temperature  
Mean Temperature 66 °F 63 °F  
Max Temperature 80 °F 74 °F 88 °F (2007)
Min Temperature 53 °F 51 °F 35 °F (1969)
Degree Days  
Heating Degree Days 0 4  
Month to date heating degree days 244  
Since 1 July heating degree days 4064  
Cooling Degree Days 2 2  
Month to date cooling degree days 35  
Year to date cooling degree days 42  
Growing Degree Days 16 (Base 50)    
Moisture  
Dew Point 53 °F    
Average Humidity 65    
Maximum Humidity 94    
Minimum Humidity 34    
Precipitation  
Precipitation 0.00 in 0.17 in 2.14 in (1983)
Month to date precipitation 4.76  
Year to date precipitation 16.28  
Snow  
Snow 0.00 in 0.00 in T in (2006)
Month to date snowfall T  
Since 1 July snowfall 9.1  
Snow Depth -    
Sea Level Pressure  
Sea Level Pressure 29.96 in    
Wind  
Wind Speed 5 mph (SSE)    
Max Wind Speed 8 mph    
Max Gust Speed -    
Visibility 10 miles    
Events      
T = Trace of Precipitation, MM = Missing Value Source: NWS Daily Summary

Daily Weather History Graph

Daily Weather History Graph

Search for Another Location

Airport:

Trip Planner

Search our weather history database for the weather conditions in past years. The results will help you decide how hot, cold, wet, or windy it might be!

Date:

Astronomy

Apr. 30, 2013 Rise Set
Actual Time 6:00 AM CDT 7:41 PM CDT
Civil Twilight 5:32 AM CDT 8:09 PM CDT
Nautical Twilight 4:59 AM CDT 8:42 PM CDT
Astronomical Twilight 4:24 AM CDT 9:18 PM CDT
Moon 12:02 AM CDT (4/30) 10:30 AM CDT (4/30)
Length of Visible Light 14h 36m
Length of Day
13h 40m
Waning Gibbous, 70% of the Moon is Illuminated
Apr 30
Waning Gibbous
May 2
Last Quarter
May 9
New
May 17
First Quarter
May 24
Full

Hourly Weather History & Observations

Time (CDT) Temp. Heat Index Dew Point Humidity Pressure Visibility Wind Dir Wind Speed Gust Speed Precip Events Conditions
12:15 AM 55.4 °F - 53.6 °F 94% 29.93 in 10.0 mi SSE 4.6 mph - N/A   Clear
12:35 AM 57.2 °F - 51.8 °F 82% 29.93 in 10.0 mi SSE 4.6 mph - N/A   Clear
12:55 AM 57.2 °F - 51.8 °F 82% 29.92 in 10.0 mi South 6.9 mph - N/A   Clear
1:15 AM 55.4 °F - 51.8 °F 88% 29.92 in 10.0 mi South 6.9 mph - N/A   Clear
1:35 AM 57.2 °F - 51.8 °F 82% 29.92 in 10.0 mi SSE 5.8 mph - N/A   Clear
1:55 AM 55.4 °F - 51.8 °F 88% 29.92 in 10.0 mi SSE 5.8 mph - N/A   Clear
2:15 AM 57.2 °F - 51.8 °F 82% 29.92 in 10.0 mi SSE 4.6 mph - N/A   Clear
2:35 AM 55.4 °F - 51.8 °F 88% 29.91 in 10.0 mi South 6.9 mph - N/A   Clear
2:55 AM 57.2 °F - 51.8 °F 82% 29.92 in 10.0 mi South 5.8 mph - N/A   Clear
3:15 AM 55.4 °F - 50.0 °F 82% 29.92 in 10.0 mi South 8.1 mph - N/A   Clear
3:35 AM 57.2 °F - 50.0 °F 77% 29.92 in 10.0 mi SSE 6.9 mph - N/A   Clear
3:55 AM 55.4 °F - 51.8 °F 88% 29.92 in 10.0 mi SSE 8.1 mph - N/A   Clear
4:15 AM 55.4 °F - 51.8 °F 88% 29.92 in 10.0 mi SSE 6.9 mph - N/A   Clear
4:35 AM 55.4 °F - 51.8 °F 88% 29.92 in 10.0 mi SSE 6.9 mph - N/A   Clear
4:55 AM 55.4 °F - 51.8 °F 88% 29.92 in 10.0 mi SSE 5.8 mph - N/A   Clear
5:15 AM 55.4 °F - 51.8 °F 88% 29.93 in 10.0 mi SSE 6.9 mph - N/A   Clear
5:35 AM 55.4 °F - 51.8 °F 88% 29.94 in 10.0 mi SSE 5.8 mph - N/A   Clear
5:55 AM 53.6 °F - 51.8 °F 94% 29.94 in 10.0 mi SSE 5.8 mph - N/A   Clear
6:15 AM 53.6 °F - 50.0 °F 88% 29.95 in 10.0 mi SSE 6.9 mph - N/A   Clear
6:35 AM 53.6 °F - 51.8 °F 94% 29.96 in 10.0 mi South 8.1 mph - N/A   Clear
6:55 AM 55.4 °F - 51.8 °F 88% 29.97 in 10.0 mi SSE 6.9 mph - N/A   Clear
7:15 AM 57.2 °F - 51.8 °F 82% 29.98 in 10.0 mi SSE 5.8 mph - N/A   Clear
7:35 AM 59.0 °F - 53.6 °F 82% 29.98 in 10.0 mi South 6.9 mph - N/A   Clear
7:55 AM 60.8 °F - 53.6 °F 77% 29.98 in 10.0 mi South 6.9 mph - N/A   Clear
8:15 AM 62.6 °F - 53.6 °F 72% 29.98 in 9.0 mi SSW 5.8 mph - N/A   Clear
8:35 AM 64.4 °F - 53.6 °F 68% 29.99 in 10.0 mi South 6.9 mph - N/A   Clear
8:55 AM 66.2 °F - 53.6 °F 64% 29.99 in 10.0 mi South 6.9 mph - N/A   Clear
9:15 AM 66.2 °F - 55.4 °F 68% 29.99 in 10.0 mi SSW 4.6 mph - N/A   Clear
9:35 AM 68.0 °F - 55.4 °F 64% 30.00 in 10.0 mi South 4.6 mph - N/A   Clear
9:55 AM 69.8 °F - 53.6 °F 56% 30.00 in 10.0 mi South 8.1 mph - N/A   Clear
10:15 AM 71.6 °F - 53.6 °F 53% 30.01 in 10.0 mi South 5.8 mph - N/A   Clear
10:35 AM 71.6 °F - 53.6 °F 53% 30.00 in 10.0 mi SW 6.9 mph - N/A   Clear
10:55 AM 73.4 °F - 55.4 °F 53% 30.00 in 10.0 mi South 4.6 mph - N/A   Clear
11:15 AM 73.4 °F - 55.4 °F 53% 30.00 in 10.0 mi SSW 4.6 mph - N/A   Clear
11:35 AM 75.2 °F - 55.4 °F 50% 29.99 in 10.0 mi SSW 5.8 mph - N/A   Clear
11:55 AM 75.2 °F - 57.2 °F 53% 29.99 in 10.0 mi South 6.9 mph - N/A   Clear
12:15 PM 75.2 °F - 55.4 °F 50% 29.98 in 10.0 mi ESE 5.8 mph - N/A   Clear
12:35 PM 75.2 °F - 53.6 °F 47% 29.97 in 10.0 mi South 6.9 mph - N/A   Clear
12:55 PM 77.0 °F - 55.4 °F 47% 29.97 in 10.0 mi SSE 4.6 mph - N/A   Clear
1:15 PM 77.0 °F - 53.6 °F 44% 29.97 in 10.0 mi SW 3.5 mph - N/A   Clear
1:35 PM 77.0 °F - 55.4 °F 47% 29.97 in 10.0 mi South 4.6 mph - N/A   Clear
1:55 PM 77.0 °F - 53.6 °F 44% 29.97 in 10.0 mi South 6.9 mph - N/A   Clear
2:15 PM 78.8 °F - 53.6 °F 42% 29.96 in 10.0 mi South 5.8 mph - N/A   Clear
2:35 PM 78.8 °F - 55.4 °F 44% 29.96 in 10.0 mi South 6.9 mph - N/A   Clear
2:55 PM 78.8 °F - 55.4 °F 44% 29.96 in 10.0 mi South 4.6 mph - N/A   Clear
3:15 PM 78.8 °F - 53.6 °F 42% 29.96 in 10.0 mi ESE 5.8 mph - N/A   Clear
3:35 PM 80.6 °F - 51.8 °F 37% 29.95 in 10.0 mi SSE 5.8 mph - N/A   Clear
3:55 PM 78.8 °F - 50.0 °F 36% 29.94 in 10.0 mi South 6.9 mph - N/A   Clear
4:15 PM 80.6 °F - 50.0 °F 34% 29.94 in 10.0 mi SSE 4.6 mph - N/A   Clear
4:35 PM 80.6 °F 80.3 °F 53.6 °F 39% 29.94 in 10.0 mi SSE 6.9 mph - N/A   Clear
5:15 PM 80.6 °F 80.3 °F 53.6 °F 39% 29.93 in 10.0 mi SE 3.5 mph - N/A   Clear
5:35 PM 78.8 °F - 53.6 °F 42% 29.93 in 10.0 mi SE 4.6 mph - N/A   Clear
5:55 PM 77.0 °F - 51.8 °F 41% 29.94 in 10.0 mi East 3.5 mph - N/A   Clear
6:15 PM 77.0 °F - 53.6 °F 44% 29.94 in 10.0 mi ESE 3.5 mph - N/A   Clear
6:35 PM 75.2 °F - 59.0 °F 57% 29.94 in 10.0 mi ESE 3.5 mph - N/A   Clear
6:55 PM 75.2 °F - 55.4 °F 50% 29.95 in 10.0 mi Calm Calm - N/A   Clear
7:15 PM 73.4 °F - 57.2 °F 57% 29.95 in 10.0 mi Calm Calm - N/A   Clear
7:35 PM 71.6 °F - 57.2 °F 60% 29.95 in 10.0 mi Calm Calm - N/A   Clear
7:55 PM 68.0 °F - 55.4 °F 64% 29.95 in 10.0 mi ESE 3.5 mph - N/A   Clear
8:15 PM 68.0 °F - 55.4 °F 64% 29.96 in 10.0 mi ESE 3.5 mph - N/A   Clear
8:35 PM 66.2 °F - 55.4 °F 68% 29.98 in 10.0 mi SSE 3.5 mph - N/A   Clear
8:55 PM 68.0 °F - 53.6 °F 60% 29.98 in 10.0 mi ESE 4.6 mph - N/A   Partly Cloudy
9:15 PM 66.2 °F - 53.6 °F 64% 29.99 in 10.0 mi ESE 5.8 mph - N/A   Partly Cloudy
9:35 PM 64.4 °F - 53.6 °F 68% 29.99 in 10.0 mi ESE 3.5 mph - N/A   Clear
9:55 PM 64.4 °F - 53.6 °F 68% 29.99 in 10.0 mi SE 3.5 mph - N/A   Clear
10:15 PM 64.4 °F - 53.6 °F 68% 30.00 in 10.0 mi Calm Calm - N/A   Clear
10:35 PM 62.6 °F - 53.6 °F 72% 30.00 in 10.0 mi Calm Calm - N/A   Clear
10:55 PM 62.6 °F - 53.6 °F 72% 30.00 in 10.0 mi SE 3.5 mph - N/A   Clear
11:15 PM 62.6 °F - 53.6 °F 72% 30.00 in 10.0 mi SE 3.5 mph - N/A   Clear
11:35 PM 62.6 °F - 53.6 °F 72% 30.00 in 10.0 mi SE 3.5 mph - N/A   Clear